TimeCDT,TemperatureF,Dew PointF,Humidity,Sea Level PressureIn,VisibilityMPH,Wind Direction,Wind SpeedMPH,Gust SpeedMPH,PrecipitationIn,Events,Conditions,WindDirDegrees,DateUTC
12:53 AM,52.0,36.0,54,30.27,10.0,East,4.6,-,N/A,,Clear,80,2012-09-15 05:53:00
1:53 AM,52.0,37.0,57,30.26,10.0,East,5.8,-,N/A,,Clear,80,2012-09-15 06:53:00
2:53 AM,50.0,37.0,61,30.24,10.0,ENE,6.9,-,N/A,,Clear,70,2012-09-15 07:53:00
3:53 AM,51.1,37.0,59,30.21,10.0,East,8.1,-,N/A,,Clear,80,2012-09-15 08:53:00
4:53 AM,51.1,37.9,61,30.19,10.0,East,8.1,-,N/A,,Clear,90,2012-09-15 09:53:00
5:53 AM,48.9,37.9,66,30.19,10.0,East,4.6,-,N/A,,Clear,100,2012-09-15 10:53:00
6:53 AM,48.0,39.0,71,30.19,10.0,East,5.8,-,N/A,,Clear,90,2012-09-15 11:53:00
7:53 AM,48.9,39.9,71,30.19,10.0,East,5.8,-,N/A,,Clear,100,2012-09-15 12:53:00
8:53 AM,54.0,43.0,66,30.17,10.0,SE,5.8,-,N/A,,Clear,130,2012-09-15 13:53:00
9:53 AM,60.1,45.0,57,30.15,10.0,SE,6.9,-,N/A,,Clear,140,2012-09-15 14:53:00
10:53 AM,64.9,46.0,50,30.14,10.0,ESE,6.9,-,N/A,,Clear,120,2012-09-15 15:53:00
11:53 AM,69.1,46.0,44,30.11,10.0,SE,6.9,-,N/A,,Clear,140,2012-09-15 16:53:00
12:53 PM,73.9,45.0,35,30.09,10.0,SSW,10.4,-,N/A,,Clear,200,2012-09-15 17:53:00
1:53 PM,77.0,46.0,33,30.07,10.0,South,12.7,-,N/A,,Clear,180,2012-09-15 18:53:00
2:53 PM,79.0,45.0,30,30.04,10.0,SSE,9.2,18.4,N/A,,Clear,150,2012-09-15 19:53:00
3:53 PM,82.0,43.0,25,30.01,10.0,SSE,10.4,18.4,N/A,,Clear,160,2012-09-15 20:53:00
4:53 PM,84.0,41.0,22,29.99,10.0,South,6.9,16.1,N/A,,Clear,180,2012-09-15 21:53:00
5:53 PM,84.0,39.9,21,29.96,10.0,SSW,9.2,-,N/A,,Clear,200,2012-09-15 22:53:00
6:53 PM,79.0,43.0,28,29.95,10.0,South,8.1,-,N/A,,Clear,180,2012-09-15 23:53:00
7:53 PM,73.0,42.1,33,29.95,10.0,South,8.1,-,N/A,,Clear,180,2012-09-16 00:53:00
8:53 PM,71.1,42.1,35,29.95,10.0,South,9.2,-,N/A,,Clear,180,2012-09-16 01:53:00
9:53 PM,70.0,41.0,35,29.94,10.0,South,9.2,-,N/A,,Clear,190,2012-09-16 02:53:00
10:53 PM,68.0,39.9,36,29.94,10.0,South,9.2,-,N/A,,Clear,190,2012-09-16 03:53:00
11:53 PM,69.1,39.9,35,29.93,10.0,SSW,11.5,-,N/A,,Clear,200,2012-09-16 04:53:00